{"data":{"norad_id":64390,"epoch":"2026-05-25T04:23:25.305792Z","epoch_age_seconds":69716,"freshness":"FRESH","line1":"1 64390U 25127W   26145.18293178  .00015691  00000+0  57825-3 0  9997","line2":"2 64390  42.9994 107.9638 0000559 287.0219  73.0571 15.27593513 54163","mean_motion":15.27593513,"eccentricity":5.59e-5,"inclination_deg":42.9994,"raan_deg":107.9638,"arg_perigee_deg":287.0219,"mean_anomaly_deg":73.0571,"bstar":0.00057825,"rev_number":5416,"period_min":94.265914835683,"perigee_km":482.62509551374,"apogee_km":483.39217159557,"semimajor_km":6861.1456335547,"source":"CELESTRAK","updated_at":"2026-05-25T13:38:20.415385Z"}}